Pittsburgh, PA

8:11 AM EDT on July 28, 2017 (GMT -0400)
Pittsburgh International

Weather History for KPIT - July, 2012

Change the Weather History Date:

Monday, July 23, 2012

  Actual Average Record
Temperature  
Mean Temperature 78 °F 73 °F  
Max Temperature 85 °F 83 °F 98 °F (1933)
Min Temperature 70 °F 63 °F 50 °F (1977)
Degree Days  
Heating Degree Days 0 0  
Month to date heating degree days 0 0  
Since 1 June heating degree days 26 38  
Since 1 July heating degree days 0 0  
Cooling Degree Days 13 8  
Month to date cooling degree days 293 181  
Year to date cooling degree days 629 383  
Since 1 June cooling degree days 480 331  
Growing Degree Days 27 (Base 50)    
Moisture  
Dew Point 66 °F    
Average Humidity 65    
Maximum Humidity 79    
Minimum Humidity 51    
Precipitation  
Precipitation T in 0.12 in 1.52 in (1992)
Month to date precipitation 3.60 2.88  
Year to date precipitation 20.22 22.28  
Snow  
Snow 0.00 in 0.00 in 0.00 in (2002)
Month to date snowfall 0.0 0.0  
Since 1 July snowfall 0.0 0.0  
Snow Depth 0.00 in    
Sea Level Pressure  
Sea Level Pressure 30.03 in    
Wind  
Wind Speed 7 mph (SW)    
Max Wind Speed 16 mph    
Max Gust Speed 22 mph    
Visibility 10 miles    
Events Rain    
T = Trace of Precipitation, MM = Missing Value Source: NWS Daily Summary

Daily Weather History Graph

Daily Weather History Graph

Search for Another Location

Airport or City:

Trip Planner

Search our weather history database for the weather conditions in past years. The results will help you decide how hot, cold, wet, or windy it might be!

Date:

Astronomy

Jul. 23, 2012 Rise Set
Actual Time 6:10 AM EDT 8:44 PM EDT
Civil Twilight 5:38 AM EDT 9:15 PM EDT
Nautical Twilight 4:59 AM EDT 9:54 PM EDT
Astronomical Twilight 4:15 AM EDT 10:38 PM EDT
Moon 11:00 AM EDT (7/23) 10:56 PM EDT (7/23)
Length of Visible Light 15h 36m
Length of Day
14h 33m
Waxing Crescent, 21% of the Moon is Illuminated
Jul 23
Waxing Crescent
Jul 26
First Quarter
Aug 1
Full
Aug 9
Last Quarter
Aug 17
New

Hourly Weather History & Observations

Time (EDT) Temp. Heat Index Dew Point Humidity Pressure Visibility Wind Dir Wind Speed Gust Speed Precip Events Conditions
12:51 AM 73.9 °F - 63.0 °F 68% 30.12 in 10.0 mi SW 3.5 mph - N/A   Mostly Cloudy
1:51 AM 73.0 °F - 63.0 °F 71% 30.12 in 10.0 mi WSW 3.5 mph - N/A   Mostly Cloudy
2:51 AM 72.0 °F - 63.0 °F 73% 30.12 in 10.0 mi Calm Calm - N/A   Mostly Cloudy
3:51 AM 71.1 °F - 64.0 °F 78% 30.11 in 10.0 mi Calm Calm - N/A   Mostly Cloudy
4:51 AM 72.0 °F - 63.0 °F 73% 30.10 in 10.0 mi Calm Calm - N/A   Overcast
5:51 AM 73.9 °F - 64.0 °F 71% 30.10 in 10.0 mi SSW 6.9 mph - N/A   Overcast
6:51 AM 73.9 °F - 64.0 °F 71% 30.09 in 10.0 mi SW 3.5 mph - N/A   Mostly Cloudy
7:51 AM 73.9 °F - 64.0 °F 71% 30.10 in 10.0 mi SSW 6.9 mph - N/A   Mostly Cloudy
8:51 AM 73.9 °F - 64.9 °F 73% 30.11 in 10.0 mi SW 5.8 mph - 0.00 in Rain Light Rain
9:51 AM 79.0 °F - 66.0 °F 64% 30.09 in 10.0 mi SW 8.1 mph - 0.00 in   Overcast
10:51 AM 79.0 °F - 66.0 °F 64% 30.09 in 10.0 mi SW 5.8 mph - N/A   Overcast
11:51 AM 75.0 °F - 68.0 °F 79% 30.09 in 10.0 mi SW 4.6 mph - 0.00 in   Overcast
12:51 PM 77.0 °F - 66.9 °F 71% 30.08 in 10.0 mi SW 6.9 mph - N/A   Overcast
1:51 PM 81.0 °F 83.0 °F 66.0 °F 60% 30.06 in 10.0 mi WSW 15.0 mph 19.6 mph N/A   Overcast
2:51 PM 82.9 °F 85.0 °F 66.0 °F 56% 30.03 in 10.0 mi WSW 12.7 mph 21.9 mph N/A   Scattered Clouds
3:51 PM 84.0 °F 85.8 °F 64.9 °F 53% 30.00 in 10.0 mi WSW 12.7 mph 20.7 mph N/A   Scattered Clouds
4:51 PM 84.0 °F 86.3 °F 66.0 °F 55% 29.96 in 10.0 mi SW 13.8 mph - N/A   Partly Cloudy
5:51 PM 84.0 °F 85.8 °F 64.9 °F 53% 29.94 in 10.0 mi WSW 12.7 mph - N/A   Partly Cloudy
6:51 PM 84.0 °F 86.3 °F 66.0 °F 55% 29.93 in 10.0 mi SW 11.5 mph - N/A   Clear
7:51 PM 82.9 °F 85.4 °F 66.9 °F 58% 29.92 in 10.0 mi SW 13.8 mph 19.6 mph N/A   Clear
8:51 PM 81.0 °F 83.8 °F 68.0 °F 65% 29.92 in 10.0 mi SSW 5.8 mph - N/A   Clear
9:51 PM 79.0 °F - 69.1 °F 72% 29.92 in 10.0 mi South 5.8 mph - N/A   Clear
10:51 PM 79.0 °F - 70.0 °F 74% 29.91 in 10.0 mi SSW 8.1 mph - N/A   Clear
11:51 PM 79.0 °F - 70.0 °F 74% 29.91 in 10.0 mi WSW 9.2 mph - N/A   Clear